CSUNSAT 1 (42715 NORAD) Tracking and Keplerian Element Data

This shows tracking and keplerian element data for the satellite.

Feedback or suggestion? Click here.




ElementValue
Catalog42715
NameCSUNSAT 1
Epoch Orbit8591
Epoch Day323.12639354
Epoch Year2018
RAAN285.1329
Inclination51.6338
Eccentricity0.0005164
Argument of Perigee64.9365
Mean Anonmoly295.2171
Mean Motion15.77081829
Decay Rate0.00043783
L11 42715U 98067LW 18323.12639354 .00043783 00000-0 26534-3 0 9997
L22 42715 51.6338 285.1329 0005164 64.9365 295.2171 15.77081829 85914

Live tracking and technical data element details for CSUNSAT 1 (NORAD 42715). CSUNSAT 1 can be tracked NOW for your location showing map with azimuth and elevation plus other details from your city location.

Track the satellite on the map from your city or location and see movement details for azimuth, elevation, latitude, longitude, range, height, and movement on the map or in text.







IsCatalogInMostPopularTable: catalog: 42715, numindb: 149
Update: records affected: 1



GetName: 42715 CSUNSAT 1

Hit Count: updated at: Mon, 19 Nov 2018 13:43:48 GMT